Regional Weather Roundup
Issued by NWS

Home | Current Version | Previous Version | Graphics & Text | Print | Product List | Glossary On
Versions: 1 2 3 4 5 6 7 8 9 10 11 12 13 14 15 16 17 18 19 20 21 22 23 24 25 26 27 28 29 30 31 32 33 34 35 36 37 38 39 40 41 42 43 44 45 46 47 48 49 50
000
ASUS43 KOAX 070602
RWRNE

WEATHER ROUNDUP FOR NEBRASKA
NATIONAL WEATHER SERVICE OMAHA NE
100 AM CDT THU MAY 07 2015

NOTES: SATELLITE DATA IS BEING USED TO AUGMENT CLOUD COVER ABOVE
       12000 FEET.
       "FAIR" INDICATES FEW OR NO CLOUDS BELOW 12,000 FEET WITH NO
       SIGNIFICANT WEATHER AND/OR OBSTRUCTIONS TO VISIBILITY.

  * THESE STATIONS DO NOT REPORT WEATHER SUCH AS RAIN...SNOW OR FOG.

NEZ001>004-019>022-054>056-070700-
NEBRASKA PANHANDLE

CITY           SKY/WX    TMP DP  RH WIND       PRES   REMARKS
SCOTTSBLUFF    LGT RAIN  48  45  89 NW20      29.80R FOG
6HR MIN TEMP:  48; 6HR MAX TEMP:  59; 6HR PCP:  0.02;

ALLIANCE       CLOUDY    49  46  90 NW15      29.74R
6HR MIN TEMP:  49; 6HR MAX TEMP:  57; 6HR PCP:  0.33;

CHADRON        LGT RAIN  50  48  93 W9        29.77R FOG
6HR MIN TEMP:  50; 6HR MAX TEMP:  62; 6HR PCP:  0.04;

KIMBALL        CLOUDY    46  43  87 NW15G22   29.81R
SIDNEY         CLOUDY    49  44  83 NW18G28   29.79R
6HR MIN TEMP:  49; 6HR MAX TEMP:  58; 6HR PCP: TRACE;

$$

NEZ057>060-069>072-079>082-070700-
SOUTHWEST NEBRASKA

CITY           SKY/WX    TMP DP  RH WIND       PRES   REMARKS
NORTH PLATTE   PTCLDY    53  52  96 W5        29.64S
6HR MIN TEMP:  52; 6HR MAX TEMP:  67;

IMPERIAL       MOCLDY    57  52  83 NW17      29.71R
6HR MIN TEMP:  56; 6HR MAX TEMP:  63;

LEXINGTON      PTCLDY    56  55  95 CALM      29.62R FOG
MCCOOK         CLEAR     58  53  84 W6        29.65R
6HR MIN TEMP:  58; 6HR MAX TEMP:  69; 6HR PCP: TRACE;

$$

NEZ005>010-023>029-035>040-094-070700-
NORTH CENTRAL NEBRASKA

CITY           SKY/WX    TMP DP  RH WIND       PRES   REMARKS
VALENTINE      CLOUDY    58  56  93 W3        29.62S
6HR MIN TEMP:  58; 6HR MAX TEMP:  62;

AINSWORTH      CLOUDY    58  58 100 CALM      29.62S
BROKEN BOW     CLOUDY    59  57  93 S8        29.63R FOG
6HR MIN TEMP:  56; 6HR MAX TEMP:  63; 6HR PCP:  0.08;

O`NEILL        CLOUDY    59  57  94 S9        29.63R
ORD            CLOUDY    58  56  93 S7        29.62R
6HR MIN TEMP:  57; 6HR MAX TEMP:  62; 6HR PCP:  0.01;

$$

NEZ041-046>049-061>064-073>077-083>087-070700-
SOUTH CENTRAL NEBRASKA

CITY           SKY/WX    TMP DP  RH WIND       PRES   REMARKS
GRAND ISLAND   CLOUDY    61  57  87 S16G23    29.64R
6HR MIN TEMP:  59; 6HR MAX TEMP:  62; 6HR PCP:  0.01;

AURORA         TSTM      59  58  98 S13       29.65F
HASTINGS       CLOUDY    64  61  90 S13G20    29.65R
6HR MIN TEMP:  58; 6HR MAX TEMP:  64; 6HR PCP:  0.19;

KEARNEY *      CLOUDY    61  55  82 S10       29.63R
$$

NEZ011>018-030>034-042>045-070700-
NORTHEAST NEBRASKA

CITY           SKY/WX    TMP DP  RH WIND       PRES   REMARKS
NORFOLK        CLOUDY    62  59  90 S20G28    29.64S
6HR MIN TEMP:  61; 6HR MAX TEMP:  67; 6HR PCP:  0.13;

COLUMBUS *     CLOUDY    61  54  77 SE17G28   29.66F
TEKAMAH        RAIN      63  60  90 SE23G38   29.71F FOG
6HR MIN TEMP:  62; 6HR MAX TEMP:  70; 6HR PCP:  0.78;

$$

NEZ050>053-065>068-078-088>093-070700-
SOUTHEAST NEBRASKA

CITY           SKY/WX    TMP DP  RH WIND       PRES   REMARKS
LINCOLN        HVY RAIN  60  59  96 SE12      29.74S FOG
6HR MIN TEMP:  60; 6HR MAX TEMP:  68; 6HR PCP:  2.79;

OMAHA EPPLEY   RAIN      65  62  90 S22G28    29.75F FOG
6HR MIN TEMP:  64; 6HR MAX TEMP:  71; 6HR PCP:  0.49;

FALLS CITY     CLOUDY    68  56  65 SE20G31   29.75F
6HR MIN TEMP:  67; 6HR MAX TEMP:  70;

PLATTSMOUTH    CLOUDY    60  57  91 W14G20    29.79R
$$

NEZ044-045-051>053-067-070700-
OMAHA AREA

CITY           SKY/WX    TMP DP  RH WIND       PRES   REMARKS
OMAHA EPPLEY   RAIN      65  62  90 S22G28    29.75F FOG
6HR MIN TEMP:  64; 6HR MAX TEMP:  71; 6HR PCP:  0.49;

PLATTSMOUTH    CLOUDY    60  57  91 W14G20    29.79R
$$


USA.gov is the U.S. government's official web portal to all federal, state and local government web resources and services.